Showing default

IRIDIUM 156, 43576

Orbit data source: Space-Track

IRIDIUM 156, 43576 is a payload satellite owned by Iridium (US) in LEO that was launched on Wed, 25 Jul 2018 UTC via an FALCON 9 launch vehicle from the Air Force Western Test Range (AFWTR). Payload-class satellites include a variety of spacecraft equipped with specific instruments for various scientific and technological missions. These include communications satellites like Starlink; space stations such as the ISS; scientific satellites like the Hubble; Earth observation satellites from companies like Planet Labs, Umbra, and HawkEye 360; GPS; miniature CubeSats for education and research; and military/defense satellites.

Loading next visibility...
Identifier
43576, 2018-061H
Orbit
LEO
Country
Flag of USUS
Related business
Manufacturer
NGIS SSG Gilbert
Mission
Operational Commercial Communications
Bus & Motor
ELITEBUS, Unknown motor
Mass
860 kg wet, 700 kg dry
Launch date (UTC)
2018-07-25 (8 years ago)
Launch vehicle
FALCON 9
Launch site
Air Force Western Test Range (AFWTR)
Object type
Payload
Rocket body
Debris
Shape & HBR
Trap Box + 2 Pan, 4.8 m
Radar Cross Section
10.154 m², Large (>1 m²)

Expand to show TLE details & history
Last TLE update: 6 hours ago

TLE from 6 hours ago
0 IRIDIUM 156
1 43576U 18061H   26034.16188133  .00000147  00000-0  45552-4 0  9994
2 43576  86.3971 112.7925 0002175  90.7138 269.4307 14.34217347394161
Epoch: 2026-02-03T03:53Z
TLE epoch observation values (Epoch: 2026-02-03T03:53:06.546Z)
Latitude
-0.00005°
Longitude
-78.83156°
Altitude
780.735 km
Speed
7.463 km/s
True Right ascension
07h 31m 10s
True Declination
0° 00' 00"
Sunlit
Object was in full shadow at epoch
Visualization orbit readout
Latitude
Unknown
Longitude
Unknown
Altitude
Unknown
Speed
Unknown
Apparent Right ascension
Unknown
Apparent Declination
Unknown
Sunlit
N/A
Visualization observer readout
Local Sidereal Time
11:39:40
Azimuth
Unknown
Elevation
Unknown
Doppler factor
Unknown
Orbital elements
Apogee altitude
776.189 km
Perigee altitude
773.077 km
Semi-major axis
7,152.77 km
Eccentricity
0.00022
Inclination
86.3971°
RAAN
112.7925°
Arg. of periapsis
90.7138°
True anomaly
269.40578°
Mean anomaly
269.4307°
Eccentric anomaly
269.41824°
Mean motion
3.58783 °/min
Orbital period
100.34 mins
BSTAR
0.000045552
Loading maneuver chart data...
Computing Atmospheric mass density...
Loading historical data...
Loading historical data...
Loading historical data...
Loading historical data...
Loading historical data...
Loading historical data...
Loading historical data...

Documentation

Showing up to 5 results
|